星链-37096(STARLINK-37096)

导读

STARLINK-37096(NORAD编号68239)是美国太空探索技术公司(SpaceX)Starlink卫星互联网星座中的一颗低轨卫星,于2024年12月8日发射入轨,截至2026年4月已在轨超480余天。该卫星属于Starlink V1.0平台,运行在近地点约355公里、远地点约357公里的近地轨道,轨道倾角43.001°,周期约91.66分钟。作为Starlink星座的组成部分,它配备氪离子推进器用于轨道机动,单块太阳能阵列供电,为全球提供高速低延迟互联网接入,支持缩小偏远地区数字鸿沟,服务民用及特定行业通信需求。

基本信息
目录编号:
68239
目录名称:
STARLINK-37096
国际标识:
2026-054H
轨道中心:
EARTH
卫星名称:
星链-37096
卫星全名:
星链-37096(STARLINK-37096)
卫星状态:
在轨 (已飞行85 天)
发射日期:
2026-03-17 UTC
国别 :
美国 (US)
星等 :
--
轨道信息
数据来源 国际轨道数据
星历时间: 2026-06-09T19:09:55+0800
1天前
查看轨道信息
半长轴: 6837.821km
偏心率: 0.0000591
轨道倾角: 53.158°
近地点辐角 87.558°
升交点赤经 223.383°
平近点角 272.549°
近地点: 459.279km
远地点: 460.089km
周期: 93.786分钟
每日圈数: 15.354165
详细信息
固有亮度:
5
最大亮度:
2.5
卫星平台:
Starlink V1.0
覆盖范围:
全球
运营商:
太空探索技术公司
运营商所在国:
美国
制造商(研发单位):
太空探索技术公司
制造商所在国:
美国
使用方式:
暂无
卫星简介
Starlink 计划是 SpaceX 推出的全球卫星互联网项目,通过发射低轨道卫星,为全球尤其是偏远地区提供高速、低延迟的互联网服务。自 2019 年起,Starlink 已部署数千颗卫星,旨在缩小全球数字鸿沟,推动互联网普及。该项目还为军事、航空等行业提供通信支持,带来广泛经济效益。
2D轨道图
3D轨道图
轨道高度分析图
轨道倾角分析图
轨道综合分析图
查看轨道综合分析图